Content
SEND FEEDBACK

Daily
Averages
Monthly
Summary
United States of America

POTTS JUNCTION, GUAM


Home > North America > United States > Guam
Elevation: 360 feet     Latitude: 13 33N     Longitude: 144 50E

WEATHER
 
SELECT A DAY
Number of Records: 209,133;   Date Range: 1/1/95 - 8/28/14
 
SHARE

PRINT THIS DATA

[ ← Previous Day ]
WEATHER ALMANAC - OCTOBER 19, 2013
[ Next Day → ]
[ °C ]   °F
Weather ElementAverageHighLow
Temperature82.3 °F84.9 °F (9:54 am)78.8 °F (11:07 am)
Dewpoint77.2 °F80.1 °F (2:54 pm)75.2 °F (11:07 am)
Humidity84.7 %94 % (11:12 am)74 % (1:54 pm)
Barometer29.65 in29.70 in (8:49 am)29.60 in (2:54 am)
Wind Speed13.4 mph18.4 mph (2:54 am)
Wind Gust34.5 mph (11:07 am)
Weather ElementAverage
Visibility9.2 mi
Wind DirectionS (178 °)

Weather ElementTotal
Precipitation0.41 in
Cooling Degree Days16.9 (Base 65)
Growing Degree Days31.9 (Base 50)
Averaged from 40 records on October 19, 2013
WEATHER CONDITIONS BREAKOUT
WIND DIRECTION BREAKOUT
WEATHER BY HOUR - OCTOBER 19, 2013
[ °C ]   °F
Local TimeTemperatureDewpointHumidityBarometerVisibilityWind DirectionWind SpeedGust SpeedPrecipitationEventsConditions
1:54 AM82.0 °F77.0 °F85 %29.62 in10.0 miSouth (170°)17.3 mph27.6 mphMostly Cloudy
2:10 AM80.6 °F77.0 °F89 %29.64 in10.0 miSouth (170°)12.7 mph21.9 mphScattered Clouds
2:54 AM82.0 °F77.0 °F85 %29.60 in10.0 miSouth (180°)18.4 mph27.6 mphMostly Cloudy
3:39 AM82.4 °F77.0 °F84 %29.63 in10.0 miSouth (180°)15.0 mph25.3 mphMostly Cloudy
3:54 AM81.0 °F77.0 °F88 %29.61 in10.0 miSouth (180°)15.0 mph26.5 mphOvercast
4:13 AM80.6 °F77.0 °F89 %29.64 in10.0 miSouth (180°)11.5 mph21.9 mphMostly Cloudy
4:54 AM82.0 °F77.0 °F85 %29.62 in10.0 miSouth (180°)12.7 mph20.7 mphMostly Cloudy
5:06 AM82.4 °F77.0 °F84 %29.65 in10.0 miSouth (170°)17.3 mph27.6 mphMostly Cloudy
5:13 AM82.4 °F77.0 °F84 %29.65 in10.0 miSouth (170°)12.7 mph24.2 mphMostly Cloudy
5:52 AM80.6 °F77.0 °F89 %29.65 in10.0 miSouth (180°)15.0 mph25.3 mph0.00 inScattered Clouds
5:54 AM81.0 °F77.0 °F88 %29.63 in10.0 miSouth (180°)12.7 mph25.3 mph0.00 inScattered Clouds
6:54 AM82.0 °F77.0 °F85 %29.64 in10.0 miSouth (180°)12.7 mph26.5 mph0.00 inScattered Clouds
7:54 AM82.0 °F77.0 °F85 %29.65 in10.0 miSouth (180°)12.7 mph19.6 mphScattered Clouds
8:41 AM82.4 °F77.0 °F84 %29.69 in10.0 miSouth (180°)17.3 mph26.5 mphMostly Cloudy
8:49 AM82.4 °F77.0 °F84 %29.70 in10.0 miSouth (180°)15.0 mph26.5 mphScattered Clouds
8:54 AM82.9 °F78.1 °F85 %29.68 in10.0 miSouth (180°)12.7 mph24.2 mphMostly Cloudy
9:54 AM84.9 °F77.0 °F77 %29.68 in10.0 miSouth (170°)16.1 mph24.2 mphMostly Cloudy
10:54 AM84.0 °F78.1 °F82 %29.67 in10.0 miSouth (170°)16.1 mph24.2 mphOvercast
11:07 AM78.8 °F75.2 °F89 %29.69 in1.0 miSouth (170°)13.8 mph34.5 mph0.11 inRainLight Rain
11:12 AM78.8 °F77.0 °F94 %29.69 in4.0 miSouth (170°)11.5 mph24.2 mph0.12 inMostly Cloudy
11:54 AM82.9 °F78.1 °F85 %29.65 in8.0 miSouth (180°)16.1 mph24.2 mph0.12 inRainLight Rain
12:54 PM84.0 °F77.0 °F79 %29.63 in10.0 miSouth (180°)12.7 mph23.0 mph0.00 inScattered Clouds
1:12 PM84.2 °F77.0 °F79 %29.65 in10.0 miSouth (180°)15.0 mph27.6 mphMostly Cloudy
1:54 PM84.9 °F75.9 °F74 %29.62 in10.0 miSouth (180°)13.8 mph27.6 mphMostly Cloudy
2:17 PM84.2 °F77.0 °F79 %29.64 in10.0 miSouth (180°)10.4 mph26.5 mphMostly Cloudy
2:25 PM84.2 °F77.0 °F79 %29.63 in10.0 miSouth (170°)12.7 mph23.0 mphOvercast
2:35 PM82.4 °F78.8 °F89 %29.63 in1.0 miSouth (180°)18.4 mph29.9 mph0.00 inRainHeavy Rain
2:37 PM82.4 °F78.8 °F89 %29.63 in7.0 miSouth (190°)13.8 mph29.9 mph0.02 inRainLight Rain
2:54 PM82.9 °F80.1 °F91 %29.60 in7.0 miSouth (190°)12.7 mph25.3 mph0.04 inRainLight Rain
3:54 PM84.0 °F77.0 °F79 %29.61 in10.0 miSouth (180°)12.7 mph23.0 mphMostly Cloudy
4:54 PM82.9 °F78.1 °F85 %29.63 in10.0 miSouth (180°)8.1 mph18.4 mph0.00 inScattered Clouds
5:15 PM82.4 °F77.0 °F84 %29.65 in10.0 miSouth (180°)11.5 mph18.4 mphMostly Cloudy
5:28 PM82.4 °F77.0 °F84 %29.66 in10.0 miSouth (170°)12.7 mph18.4 mphScattered Clouds
5:54 PM82.0 °F75.9 °F82 %29.65 in10.0 miSouth (180°)10.4 mph21.9 mphPartly Cloudy
6:54 PM82.0 °F77.0 °F85 %29.66 in10.0 miSouth (180°)10.4 mph17.3 mphPartly Cloudy
7:54 PM82.0 °F77.0 °F85 %29.68 in10.0 miSouth (180°)9.2 mphPartly Cloudy
8:54 PM82.0 °F77.0 °F85 %29.70 in10.0 miSouth (180°)10.4 mph21.9 mphScattered Clouds
9:54 PM82.0 °F78.1 °F88 %29.69 in10.0 miSouth (180°)11.5 mph17.3 mphMostly Cloudy
10:54 PM82.0 °F77.0 °F85 %29.68 in10.0 miSouth (180°)13.8 mph21.9 mphPartly Cloudy
11:54 PM81.0 °F77.0 °F88 %29.67 in10.0 miSouth (180°)11.5 mphPartly Cloudy
Hourly data recorded from PGUM, located miles away from Potts Junction, Guam







STORIES FROM OUR PARTNERS